AirNav   Everest Fuels
 
 724 users online  

60CL CHP Academy Airport
Bryte, California, USA

GOING TO BRYTE?


FAA INFORMATION EFFECTIVE 21 MAY 2020

Location

FAA Identifier: 60CL
Lat/Long: 38-35-55.6580N 121-33-37.8430W
38-35.927633N 121-33.630717W
38.5987939,-121.5605119
(estimated)
Elevation: 20 ft. / 6 m (estimated)
Variation: 16E (1985)
From city: 2 miles NW of BRYTE, CA
Time zone: UTC -7 (UTC -8 during Standard Time)
Zip code: 95605

Airport Operations

Airport use: Private use. Permission required prior to landing
Activation date: 05/1977
Control tower: no
ARTCC: OAKLAND CENTER
FSS: RANCHO MURIETA FLIGHT SERVICE STATION
Attendance: UNATNDD
Wind indicator: yes
Segmented circle: no

Airport Communications

WX ASOS at SMF (6 nm N): PHONE 916-649-3996
WX ASOS at SAC (6 nm SE): PHONE 916-421-0923
WX AWOS-3 at MCC (9 nm NE): 125.975 (916-641-1272)
WX AWOS-3 at EDU (11 nm W): 119.025 (530-754-6839)
WX AWOS-3 at MHR (13 nm E): 118.325 (916-366-3371)
WX AWOS-3 at DWA (14 nm W): 125.775 (530-750-2759)

Nearby radio navigation aids

VOR radial/distance  VOR name  Freq  Var
MCCr224/8.4MC CLELLAN VOR/DME109.2017E
SACr340/9.3SACRAMENTO VORTAC115.2017E
MYVr163/30.0MARYSVILLE VOR/DME110.8016E
ILAr124/35.8WILLIAMS VORTAC114.4018E
HNWr242/38.8HANGTOWN VOR/DME115.5017E

Airport Services

Runway Information

Runway 5/23

Dimensions: 1400 x 24 ft. / 427 x 7 m
Surface: asphalt
RUNWAY 5  RUNWAY 23
Traffic pattern: leftright

Runway 16/34

Dimensions: 1200 x 20 ft. / 366 x 6 m
Surface: asphalt
RUNWAY 16  RUNWAY 34
Traffic pattern: rightleft

Airport Ownership and Management from official FAA records

Ownership: Publicly-owned
Owner: CALIFORNIA HIGHWAY PATROL
601 N. 7TH STREET
SACRAMENTO, CA 95811
Phone (916) 843-3300
Manager: M. W. SEDAM
601 N. 7TH STREET
SACRAMENTO, CA 95811
Phone (916) 843-3300

Airport Operational Statistics

Aircraft based on the field: 2
Single engine airplanes: 1
Helicopters: 1
    

Additional Remarks

FOR CD CTC NORCAL APCH AT 916-361-6874.

Instrument Procedures

There are no published instrument procedures at 60CL.

Some nearby airports with instrument procedures:

KSMF - Sacramento International Airport (6 nm N)
KSAC - Sacramento Executive Airport (6 nm SE)
KMCC - Mc Clellan Airfield (9 nm NE)
KEDU - University Airport (11 nm W)
KMHR - Sacramento Mather Airport (13 nm E)
KDWA - Yolo County Airport (14 nm W)
O41 - Watts-Woodland Airport (15 nm W)
 
Loc | Ops | Rwys | IFR | FBO | Links
Com | Nav | Svcs | Stats | Notes

Sonoma Jet Center
 
Area around 60CL (CHP Academy Airport)
 
Road maps at: MapQuest Bing Google
 
Aerial photo
No photo
 
Sectional chart

 
Airport distance calculator
Flying to CHP Academy Airport? Find the distance to fly.

From to 60CL

Sunrise and sunset
Times for 04-Jun-2020
 Local
(UTC-7)
 Zulu
(UTC)
Morning civil twilight05:1212:12
Sunrise05:4312:43
Sunset20:2603:26
Evening civil twilight20:5803:58

Current date and time
Zulu (UTC)  05-Jun-2020 03:56:27
Local (UTC-7)  04-Jun-2020 20:56:27
 
METAR
KSMF 
6nm N 
050253Z 18012KT 10SM CLR 33/12 A2959 RMK AO2 SLP020 T03330117 56014
KSAC 
7nm SE 
050253Z 22009KT 10SM CLR 31/13 A2961 RMK AO2 SLP026 T03110128 55009
KMCC 
9nm NE 
050335Z AUTO 21006G13KT 10SM CLR 32/12 A2960 RMK AO2
KEDU 
11nm W 
050335Z AUTO 18004KT 10SM CLR 28/14 A2960 RMK AO1
KMHR 
14nm E 
050145Z 23006KT 10SM SKC 37/07 A2960
TAF
KSMF 
6nm N 
041726Z 0418/0518 31007KT P6SM FEW250 FM050000 17010KT P6SM FEW250
KSAC 
7nm SE 
041726Z 0418/0518 32004KT P6SM SKC FM050100 19008KT P6SM FEW250
KMCC 
9nm NE 
041726Z 0418/0518 VRB04KT P6SM SKC FM050000 16009KT P6SM FEW250
KMHR 
14nm E 
041726Z 0418/0518 32004KT P6SM SKC FM050100 18008KT P6SM FEW250
NOTAMs
Click for the latest NOTAMs
NOTAMs are issued by the DoD/FAA and will open in a separate window not controlled by AirNav.

 

 
 

Would you like to see your business listed on this page?

 If your business provides an interesting product or service to pilots, flight crews, aircraft, or users of the CHP Academy Airport, you should consider listing it here.  To start the listing process, click on the button below
 
Add a business
 

Other Pages about CHP Academy Airport

Update a link
 
Copyright © AirNav, LLC. All rights reserved. Privacy Policy  Contact